Location: Huntsville
(41.2590°N, 111.7678°W)
Time: 21:06:55
(UTC+00:00)

Explorer 7 - Pass Details

Date: 17 June 2021
Orbit: 484 x 676 km, 50.3° (Epoch: 30 July)

Event Time Altitude Azimuth Distance (km) Brightness Sun altitude
Rises 06:01:11 0° 249° (WSW) 3,018 10.6 -22.3°
Reaches altitude 10° 06:03:37 10° 254° (WSW) 2,100 9.8 -22.5°
Maximum altitude 06:08:24 57° 333° (NNW) 782 7.8 -22.8°
Drops below altitude 10° 06:13:04 10° 52° (NE) 2,039 9.9 -23.1°
Sets 06:15:23 0° 57° (ENE) 2,922 10.7 -23.2°
